[[{"header":{"parameterUnit":"m.s-1","parameterCategory":2,"la1":30.2991,"la2":30.254,"lo1":-89.0895,"lo2":-89.0444,"dy":0.0017,"dx":0.0017,"nx":28,"ny":28,"refTime":"2024-07-10T09:00:00:Z","depth":"0","parameterNumber":2,"parameterNumberName":"U-component_of_CURRENTS"},"data":[0,0,0,0,0,0,0,0,0,0,0,0,0,0,0,0,0,0,0,0,0,0,0,0,0,0,0,0,0,0,0,0,0,0,0,0,0,0,0,0,0,0,0,0,0,0,0,0,0,0,0,0,0,0,0,0,0,0,-0.2477,-0.2476,0,-0.2398,-0.2397,-0.2396,-0.233,-0.233,-0.2329,-0.2329,-0.2256,-0.2254,-0.2253,0,0,0,0,0,0,0,0,0,0,0,0,0,-0.2646,-0.2642,-0.2477,-0.2476,-0.2475,-0.2398,-0.2397,-0.2396,-0.2331,-0.233,-0.2329,-0.2328,-0.2256,-0.2254,-0.2253,0,0,0,0,0,0,0,0,0,0,0,0,0,-0.2569,-0.2641,-0.2477,-0.2434,-0.2429,-0.2398,-0.2397,-0.2396,-0.2331,-0.233,-0.2329,-0.2328,-0.2257,-0.2255,-0.2253,-0.2259,0,0,-0.2246,-0.2246,0,0,0,0,0,0,0,0,-0.2574,-0.2563,-0.2441,-0.2437,-0.2432,-0.2374,-0.243,-0.2351,-0.2331,-0.2367,-0.2329,-0.2327,-0.2297,-0.2292,-0.2278,-0.2256,-0.2253,-0.2246,-0.2245,-0.2244,-0.2244,0,0,0,0,0,0,0,-0.2579,-0.2567,-0.2445,-0.244,-0.2435,-0.2444,-0.2431,-0.2415,-0.2338,-0.2364,-0.2359,-0.2352,-0.2294,-0.228,-0.2275,-0.2252,-0.2246,-0.2245,-0.2243,-0.2242,-0.2258,-0.226,0,0,0,0,0,0,-0.2587,-0.2571,-0.2448,-0.2443,-0.2503,-0.2441,-0.2427,-0.2393,-0.2338,-0.2329,-0.2353,-0.2349,-0.2284,-0.2278,-0.2273,-0.229,-0.2244,-0.2242,-0.2241,-0.2257,-0.2259,-0.226,0,0,0,0,0,0,-0.259,-0.2575,-0.2451,-0.2508,-0.2493,-0.2439,-0.2401,-0.2392,-0.238,-0.2329,-0.232,-0.2351,-0.2283,-0.2276,-0.2269,-0.2286,-0.2241,-0.224,-0.2255,-0.2257,-0.226,-0.2316,0,0,0,0,0,0,-0.2595,-0.2576,-0.2566,-0.2507,-0.249,-0.2439,-0.2402,-0.2391,-0.2377,-0.2371,-0.2325,-0.2317,-0.2281,-0.2272,-0.2267,-0.2282,-0.2238,-0.2253,-0.2256,-0.2259,-0.2312,-0.232,-0.2327,0,0,0,0,0,-0.2601,-0.2591,-0.2565,-0.2551,-0.2471,-0.244,-0.2432,-0.2392,-0.2378,-0.2377,-0.2351,-0.2318,-0.2288,-0.2271,-0.2265,-0.228,-0.2251,-0.2255,-0.2259,-0.2309,-0.2319,-0.2327,0,0,0,0,0,0,-0.2677,-0.2581,-0.2552,-0.2517,-0.2484,-0.2429,-0.2426,-0.2403,-0.2382,-0.2377,-0.2333,-0.2324,-0.233,-0.2304,-0.2287,-0.2298,-0.2267,-0.227,-0.2308,-0.2316,-0.2324,-0.2334,-0.2236,0,0,0,0,0,-0.2684,-0.2636,-0.2571,-0.2549,-0.253,-0.2482,-0.2469,-0.244,-0.2409,-0.2398,-0.2367,-0.2345,-0.2341,-0.2327,-0.2316,-0.2315,-0.2311,-0.2325,-0.2332,-0.2339,-0.2345,-0.2367,-0.2376,-0.2273,-0.2273,-0.2272,0,0,-0.2706,-0.2652,-0.2626,-0.2561,-0.2528,-0.2502,-0.2471,-0.245,-0.2438,-0.2396,-0.2379,-0.2374,-0.2352,-0.2353,-0.2353,-0.2329,-0.2368,-0.2343,-0.2349,-0.2352,-0.2371,-0.2381,-0.239,-0.2275,-0.2275,-0.2274,0,0,-0.2725,-0.268,-0.2641,-0.2612,-0.2562,-0.2534,-0.2532,-0.2481,-0.2467,-0.2454,-0.2434,-0.2449,-0.2411,-0.2412,-0.2406,-0.2455,-0.2416,-0.2442,-0.2472,-0.2493,-0.2501,-0.2509,-0.252,-0.2528,-0.2434,-0.2434,-0.2434,0,-0.2762,-0.2692,-0.2638,-0.2604,-0.2585,-0.2549,-0.2528,-0.2514,-0.2473,-0.2475,-0.2455,-0.2457,-0.2446,-0.2468,-0.2482,-0.2472,-0.2464,-0.2435,-0.2502,-0.2509,-0.2516,-0.2525,-0.2533,-0.2437,-0.2437,-0.2436,-0.2436,0,-0.2738,-0.2696,-0.2684,-0.2611,-0.2595,-0.2577,-0.2542,-0.254,-0.2525,-0.2511,-0.2533,-0.2528,-0.2526,-0.2534,-0.2516,-0.2561,-0.2535,-0.2518,-0.2476,-0.2529,-0.2536,-0.2544,-0.2442,-0.2441,-0.244,-0.2439,0,0,-0.2787,-0.2679,-0.2679,-0.2644,-0.2595,-0.2578,-0.2577,-0.2563,-0.2569,-0.2561,-0.2574,-0.2598,-0.2601,-0.2598,-0.2592,-0.2612,-0.2662,-0.2578,-0.2577,-0.2584,-0.2693,-0.2648,-0.2652,-0.2642,-0.2643,-0.2645,-0.268,0,-0.2787,-0.2719,-0.2671,-0.2638,-0.2605,-0.2582,-0.2582,-0.2578,-0.2577,-0.2586,-0.2612,-0.262,-0.2621,-0.2621,-0.265,-0.2655,-0.2683,-0.2654,-0.2645,-0.2645,-0.2595,-0.2659,-0.2543,-0.2563,-0.2687,-0.2688,-0.2689,0,-0.2778,-0.2732,-0.2682,-0.2631,-0.2617,-0.2602,-0.2602,-0.2594,-0.2614,-0.2616,-0.2643,-0.2645,-0.2689,-0.2674,-0.2727,-0.2698,-0.2707,-0.2715,-0.2715,-0.2658,-0.2614,-0.253,-0.2571,-0.2336,-0.27,-0.2699,-0.2698,0,-0.2821,-0.2749,-0.2708,-0.2687,-0.2626,-0.2619,-0.2603,-0.2611,-0.261,-0.2634,-0.2637,-0.2683,-0.2693,-0.2726,-0.2737,-0.2729,-0.2779,-0.277,-0.2747,-0.2743,-0.2638,-0.2622,-0.2446,-0.2822,-0.2822,-0.2822,-0.2821,0,-0.283,-0.2803,-0.272,-0.2696,-0.2675,-0.2635,-0.2628,-0.2626,-0.2629,-0.2632,-0.2652,-0.266,-0.2703,-0.2724,-0.2746,-0.2762,-0.2789,-0.2771,-0.2758,-0.2654,-0.264,-0.2425,-0.2334,-0.2823,-0.2823,-0.2822,-0.2822,0,-0.2865,-0.2808,-0.2761,-0.2698,-0.268,-0.2669,-0.2623,-0.2628,-0.2623,-0.2627,-0.2631,-0.2649,-0.2669,-0.2702,-0.2748,-0.2762,-0.2692,-0.2785,-0.2656,-0.2628,-0.2398,-0.2317,-0.2322,-0.2274,-0.2784,-0.2783,-0.2783,0,-0.2869,-0.2839,-0.2768,-0.2753,-0.2716,-0.2685,-0.267,-0.2636,-0.2626,-0.2614,-0.2615,-0.2628,-0.262,-0.2664,-0.2696,-0.2731,-0.2631,-0.2639,-0.2625,-0.2376,-0.2277,-0.2333,-0.2297,-0.2508,-0.2506,-0.2503,-0.2501,0,-0.2884,-0.2854,-0.2813,-0.2774,-0.2745,-0.2702,-0.2661,-0.2637,-0.26,-0.2593,-0.2561,-0.2548,-0.2577,-0.2565,-0.2604,-0.2591,-0.2476,-0.2594,-0.2365,-0.2077,-0.21,-0.2047,-0.2485,-0.2481,-0.2483,-0.2484,-0.2485,-0.2486,-0.2911,-0.2878,-0.2821,-0.2781,-0.2754,-0.2688,-0.2615,-0.2581,-0.2526,-0.2454,-0.2491,-0.2439,-0.2449,-0.2485,-0.2401,-0.2181,-0.2353,-0.21,-0.2036,-0.2129,-0.2036,-0.2431,-0.2392,-0.2393,-0.2394,-0.2396,-0.2397,0,-0.2924,-0.2862,-0.2833,-0.2753,-0.2708,-0.2684,-0.2586,-0.2488,-0.2385,-0.2382,-0.2336,-0.2303,-0.2179,-0.2084,-0.19,-0.1659,-0.1673,-0.1507,-0.1489,-0.1493,-0.1826,-0.1755,-0.1538,-0.1538,-0.1538,-0.1538,-0.1539,-0.1539,-0.2925,-0.2865,-0.2815,-0.271,-0.2653,-0.2508,-0.2418,-0.2292,-0.2228,-0.2129,-0.2103,-0.2085,-0.1821,-0.1508,-0.1082,-0.1022,-0.0906,-0.0934,-0.0933,-0.1006,-0.1054,-0.11,-0.1006,-0.0636,-0.0635,-0.0624,-0.0622,-0.0621]},{"header":{"parameterUnit":"m.s-1","parameterCategory":2,"la1":30.2991,"la2":30.254,"lo1":-89.0895,"lo2":-89.0444,"dy":0.0017,"dx":0.0017,"nx":28,"ny":28,"refTime":"2024-07-10T09:00:00:Z","depth":"0","parameterNumber":3,"parameterNumberName":"V-component_of_CURRENTS"},"data":[0,0,0,0,0,0,0,0,0,0,0,0,0,0,0,0,0,0,0,0,0,0,0,0,0,0,0,0,0,0,0,0,0,0,0,0,0,0,0,0,0,0,0,0,0,0,0,0,0,0,0,0,0,0,0,0,0,0,-0.1398,-0.1398,0,-0.1302,-0.13,-0.1299,-0.1226,-0.1226,-0.1225,-0.1225,-0.1045,-0.104,-0.1035,0,0,0,0,0,0,0,0,0,0,0,0,0,-0.1415,-0.1415,-0.1399,-0.1398,-0.1397,-0.1302,-0.13,-0.1298,-0.1226,-0.1226,-0.1225,-0.1225,-0.1046,-0.1041,-0.1035,0,0,0,0,0,0,0,0,0,0,0,0,0,-0.1366,-0.1415,-0.1399,-0.1355,-0.135,-0.1303,-0.13,-0.1298,-0.1226,-0.1226,-0.1225,-0.1225,-0.1048,-0.1041,-0.1034,-0.0991,0,0,-0.1012,-0.1009,0,0,0,0,0,0,0,0,-0.1369,-0.1364,-0.1362,-0.1358,-0.1353,-0.1282,-0.124,-0.1193,-0.1226,-0.1265,-0.1225,-0.1225,-0.1121,-0.1108,-0.1081,-0.0982,-0.0974,-0.1011,-0.1007,-0.1004,-0.1002,0,0,0,0,0,0,0,-0.1372,-0.1368,-0.1353,-0.1361,-0.1356,-0.1305,-0.1298,-0.123,-0.1188,-0.1262,-0.1258,-0.1259,-0.1117,-0.1088,-0.1076,-0.0972,-0.1012,-0.1005,-0.1001,-0.0998,-0.0841,-0.0841,0,0,0,0,0,0,-0.1404,-0.1372,-0.1356,-0.1351,-0.1369,-0.1305,-0.1297,-0.1299,-0.119,-0.1176,-0.1259,-0.1256,-0.11,-0.1084,-0.1069,-0.1008,-0.1004,-0.0997,-0.0993,-0.0841,-0.0841,-0.0841,0,0,0,0,0,0,-0.1405,-0.1404,-0.136,-0.1364,-0.1356,-0.1307,-0.1308,-0.1297,-0.1265,-0.119,-0.1173,-0.1239,-0.11,-0.1079,-0.1014,-0.1001,-0.0994,-0.0988,-0.0841,-0.0841,-0.0841,-0.0887,0,0,0,0,0,0,-0.1406,-0.1404,-0.1402,-0.1367,-0.1358,-0.1326,-0.1309,-0.1296,-0.1269,-0.1264,-0.1167,-0.1151,-0.1098,-0.1025,-0.1007,-0.0991,-0.0982,-0.0841,-0.0841,-0.0841,-0.0886,-0.0889,-0.0892,0,0,0,0,0,-0.1406,-0.1397,-0.1403,-0.1401,-0.1361,-0.1327,-0.1315,-0.1275,-0.1269,-0.1247,-0.1195,-0.1153,-0.1014,-0.1019,-0.0998,-0.0979,-0.0841,-0.0841,-0.0841,-0.0884,-0.0888,-0.0892,0,0,0,0,0,0,-0.1377,-0.1389,-0.1394,-0.1383,-0.1362,-0.1317,-0.1291,-0.1277,-0.1219,-0.121,-0.1145,-0.1124,-0.1066,-0.102,-0.1027,-0.0939,-0.0924,-0.092,-0.0964,-0.0967,-0.097,-0.0979,-0.0976,0,0,0,0,0,-0.1383,-0.139,-0.1383,-0.137,-0.1366,-0.1333,-0.1312,-0.1291,-0.1246,-0.122,-0.1161,-0.1102,-0.105,-0.1009,-0.0953,-0.0893,-0.0882,-0.0872,-0.0875,-0.0878,-0.0873,-0.0856,-0.0858,-0.0842,-0.0842,-0.0842,0,0,-0.1363,-0.1374,-0.1373,-0.1367,-0.1346,-0.1329,-0.1317,-0.1286,-0.1267,-0.1208,-0.1151,-0.1107,-0.104,-0.0982,-0.0951,-0.0938,-0.0882,-0.0878,-0.0881,-0.0874,-0.0857,-0.0858,-0.086,-0.0843,-0.0842,-0.0842,0,0,-0.1333,-0.1345,-0.1345,-0.1337,-0.1327,-0.1312,-0.1312,-0.1275,-0.1253,-0.1206,-0.1168,-0.1119,-0.103,-0.0982,-0.0948,-0.0933,-0.0906,-0.0919,-0.0927,-0.0911,-0.0913,-0.0913,-0.0929,-0.0931,-0.0913,-0.0913,-0.0913,0,-0.1306,-0.1318,-0.133,-0.1326,-0.1321,-0.1313,-0.1299,-0.1274,-0.1219,-0.1205,-0.1193,-0.1089,-0.1029,-0.097,-0.0966,-0.0937,-0.0941,-0.0917,-0.0916,-0.0917,-0.0917,-0.0932,-0.0934,-0.0916,-0.0915,-0.0915,-0.0915,0,-0.1285,-0.1289,-0.1283,-0.1294,-0.1283,-0.1268,-0.1261,-0.1241,-0.1228,-0.1208,-0.1159,-0.1091,-0.103,-0.1009,-0.0975,-0.0944,-0.0953,-0.0931,-0.0909,-0.0921,-0.0937,-0.0938,-0.0919,-0.0918,-0.0917,-0.0917,0,0,-0.1237,-0.1266,-0.1265,-0.1275,-0.1273,-0.1263,-0.1245,-0.1231,-0.1225,-0.118,-0.1164,-0.108,-0.1061,-0.1022,-0.0979,-0.0958,-0.0966,-0.0946,-0.0944,-0.0968,-0.0963,-0.0996,-0.1,-0.0949,-0.0949,-0.0949,-0.0985,0,-0.1216,-0.1228,-0.124,-0.1233,-0.124,-0.124,-0.1227,-0.1214,-0.1201,-0.1182,-0.1138,-0.1098,-0.1062,-0.1036,-0.1011,-0.0973,-0.0965,-0.096,-0.0942,-0.0942,-0.0974,-0.1,-0.0984,-0.1017,-0.0985,-0.0985,-0.0985,0,-0.1198,-0.1216,-0.1222,-0.1239,-0.1239,-0.123,-0.1233,-0.1218,-0.12,-0.1188,-0.1155,-0.1126,-0.108,-0.1055,-0.1008,-0.1011,-0.099,-0.0969,-0.097,-0.0981,-0.0975,-0.0992,-0.1018,-0.0789,-0.0986,-0.0986,-0.0986,0,-0.1195,-0.1202,-0.1219,-0.1222,-0.1233,-0.1232,-0.1231,-0.122,-0.1218,-0.1195,-0.1191,-0.1143,-0.1117,-0.1082,-0.1044,-0.1025,-0.1019,-0.0982,-0.1,-0.1003,-0.0973,-0.0974,-0.0775,-0.0959,-0.0959,-0.0958,-0.0958,0,-0.1186,-0.1195,-0.1223,-0.1233,-0.1245,-0.1242,-0.1247,-0.1238,-0.123,-0.1236,-0.1194,-0.1189,-0.1122,-0.1111,-0.1072,-0.1057,-0.1042,-0.1012,-0.1011,-0.0993,-0.0995,-0.0781,-0.0643,-0.096,-0.0959,-0.0959,-0.0959,0,-0.1186,-0.1202,-0.1226,-0.1246,-0.125,-0.1261,-0.127,-0.128,-0.1258,-0.1267,-0.126,-0.1228,-0.1222,-0.1185,-0.114,-0.1097,-0.0974,-0.1072,-0.1077,-0.1076,-0.0866,-0.0734,-0.0638,-0.0559,-0.1087,-0.1088,-0.1088,0,-0.1195,-0.121,-0.1248,-0.1271,-0.1282,-0.1296,-0.1315,-0.1299,-0.131,-0.1296,-0.1307,-0.1299,-0.132,-0.1289,-0.1232,-0.1205,-0.1015,-0.1127,-0.107,-0.0856,-0.0707,-0.0677,-0.0613,-0.1059,-0.1059,-0.106,-0.106,0,-0.1218,-0.1235,-0.1264,-0.1318,-0.1345,-0.1366,-0.1383,-0.139,-0.1379,-0.1398,-0.1423,-0.144,-0.1414,-0.1408,-0.1358,-0.1277,-0.096,-0.1136,-0.089,-0.065,-0.0626,-0.055,-0.1049,-0.1064,-0.1063,-0.1063,-0.1063,-0.1063,-0.1249,-0.1278,-0.1334,-0.1381,-0.1406,-0.144,-0.1474,-0.15,-0.1537,-0.1591,-0.1559,-0.1634,-0.1535,-0.1483,-0.1347,-0.1,-0.1011,-0.0851,-0.071,-0.0704,-0.0604,-0.1138,-0.1163,-0.1163,-0.1163,-0.1163,-0.1163,0,-0.1318,-0.1352,-0.1399,-0.1462,-0.1509,-0.1503,-0.1535,-0.1588,-0.1667,-0.1732,-0.1794,-0.1744,-0.1604,-0.1362,-0.0966,-0.0642,-0.0536,-0.0397,-0.0276,-0.0233,-0.0675,-0.0643,-0.0585,-0.0585,-0.0586,-0.0586,-0.0586,-0.0586,-0.1361,-0.1438,-0.1466,-0.1563,-0.1593,-0.1668,-0.1693,-0.1769,-0.183,-0.1917,-0.1929,-0.1838,-0.1223,-0.0699,-0.0161,-0.0068,0.0203,0.0205,0.0343,0.0157,0.0128,0.01,0.0165,0.0391,0.0392,0.0712,0.0716,0.072]}],[{"header":{"parameterUnit":"m.s-1","parameterCategory":2,"la1":30.2991,"la2":30.254,"lo1":-89.0895,"lo2":-89.0444,"dy":0.0017,"dx":0.0017,"nx":28,"ny":28,"refTime":"2024-07-10T09:00:00:Z","depth":"2","parameterNumber":2,"parameterNumberName":"U-component_of_CURRENTS"},"data":[0,0,0,0,0,0,0,0,0,0,0,0,0,0,0,0,0,0,0,0,0,0,0,0,0,0,0,0,0,0,0,0,0,0,0,0,0,0,0,0,0,0,0,0,0,0,0,0,0,0,0,0,0,0,0,0,0,0,-0.1898,-0.1899,0,-0.1971,-0.1971,-0.1971,-0.1998,-0.1998,-0.1999,-0.1999,-0.1968,-0.1967,-0.1965,0,0,0,0,0,0,0,0,0,0,0,0,0,-0.1663,-0.1667,-0.1898,-0.1899,-0.1901,-0.1971,-0.1971,-0.1971,-0.1998,-0.1998,-0.1999,-0.2,-0.1968,-0.1967,-0.1965,0,0,0,0,0,0,0,0,0,0,0,0,0,-0.1745,-0.1668,-0.1897,-0.1929,-0.1933,-0.1971,-0.1971,-0.1971,-0.1998,-0.1998,-0.1999,-0.2,-0.1969,-0.1967,-0.1965,-0.1935,0,0,-0.1959,-0.1958,0,0,0,0,0,0,0,0,-0.1741,-0.1753,-0.1923,-0.1927,-0.1932,-0.1984,-0.1877,-0.1957,-0.1997,-0.1964,-0.1999,-0.2,-0.1969,-0.1967,-0.1968,-0.1934,-0.1933,-0.1958,-0.1957,-0.1956,-0.1956,0,0,0,0,0,0,0,-0.1735,-0.1749,-0.1918,-0.1925,-0.1931,-0.19,-0.1913,-0.1892,-0.1952,-0.1967,-0.1971,-0.1993,-0.1969,-0.1969,-0.1967,-0.1932,-0.1959,-0.1957,-0.1955,-0.1955,-0.1875,-0.1874,0,0,0,0,0,0,-0.175,-0.1745,-0.1915,-0.1921,-0.1846,-0.1905,-0.1919,-0.1959,-0.1954,-0.1958,-0.1992,-0.1994,-0.1973,-0.1969,-0.1966,-0.1972,-0.1956,-0.1954,-0.1953,-0.1876,-0.1875,-0.1874,0,0,0,0,0,0,-0.1745,-0.1765,-0.1913,-0.1839,-0.1858,-0.191,-0.1954,-0.196,-0.1981,-0.1977,-0.1977,-0.201,-0.1973,-0.1969,-0.1963,-0.197,-0.1954,-0.1952,-0.1877,-0.1875,-0.1874,-0.1958,0,0,0,0,0,0,-0.1738,-0.1763,-0.1795,-0.1842,-0.1863,-0.195,-0.1954,-0.1961,-0.1996,-0.2,-0.1991,-0.1988,-0.1973,-0.1967,-0.1961,-0.1967,-0.195,-0.1878,-0.1876,-0.1874,-0.1957,-0.196,-0.1963,0,0,0,0,0,-0.1729,-0.1778,-0.1797,-0.1818,-0.1907,-0.1952,-0.1958,-0.199,-0.1997,-0.2009,-0.2003,-0.199,-0.1951,-0.1965,-0.1959,-0.1964,-0.1879,-0.1877,-0.1875,-0.1955,-0.1959,-0.1963,0,0,0,0,0,0,-0.1684,-0.1787,-0.1809,-0.1884,-0.1921,-0.196,-0.1987,-0.1999,-0.2004,-0.2007,-0.199,-0.1987,-0.1977,-0.1951,-0.1967,-0.1929,-0.1907,-0.1904,-0.197,-0.1974,-0.1977,-0.196,-0.1948,0,0,0,0,0,-0.1694,-0.1763,-0.1829,-0.1885,-0.1913,-0.1947,-0.1971,-0.1989,-0.2005,-0.2011,-0.2004,-0.1982,-0.1958,-0.1956,-0.1926,-0.1918,-0.1886,-0.1908,-0.1912,-0.1915,-0.1893,-0.1856,-0.1854,-0.1867,-0.1867,-0.1867,0,0,-0.1691,-0.1757,-0.1795,-0.1881,-0.1915,-0.1947,-0.1962,-0.2007,-0.2018,-0.2002,-0.2012,-0.1993,-0.1954,-0.1944,-0.1936,-0.1932,-0.1899,-0.1912,-0.1916,-0.1891,-0.1854,-0.1853,-0.1852,-0.1866,-0.1866,-0.1866,0,0,-0.171,-0.1781,-0.1838,-0.1875,-0.1943,-0.196,-0.1977,-0.202,-0.203,-0.2038,-0.202,-0.2009,-0.1984,-0.1961,-0.1942,-0.1938,-0.1911,-0.1928,-0.1944,-0.191,-0.1909,-0.1908,-0.1897,-0.1894,-0.1938,-0.1939,-0.1939,0,-0.1725,-0.1783,-0.1851,-0.1902,-0.1934,-0.1967,-0.2,-0.2011,-0.2039,-0.2034,-0.2048,-0.1997,-0.1984,-0.1952,-0.1958,-0.1948,-0.1929,-0.1947,-0.1918,-0.1915,-0.1913,-0.1901,-0.1897,-0.1942,-0.1942,-0.1942,-0.1941,0,-0.1745,-0.1811,-0.1845,-0.1923,-0.1959,-0.1995,-0.203,-0.2041,-0.2054,-0.2054,-0.2036,-0.2021,-0.1987,-0.1988,-0.1979,-0.1948,-0.1943,-0.1927,-0.1919,-0.1917,-0.1905,-0.1899,-0.1948,-0.1946,-0.1945,-0.1944,0,0,-0.1781,-0.1852,-0.1876,-0.1897,-0.1974,-0.2,-0.2024,-0.204,-0.2032,-0.2049,-0.2032,-0.2015,-0.2005,-0.198,-0.1969,-0.1952,-0.1947,-0.1941,-0.1938,-0.195,-0.1889,-0.1808,-0.1794,-0.1935,-0.1933,-0.1932,-0.1901,0,-0.1793,-0.1846,-0.1898,-0.1948,-0.1969,-0.2016,-0.2029,-0.2043,-0.2043,-0.2029,-0.2015,-0.1992,-0.2002,-0.1994,-0.1978,-0.194,-0.1928,-0.1957,-0.1869,-0.1866,-0.181,-0.1782,-0.1574,-0.152,-0.1895,-0.1894,-0.1893,0,-0.1814,-0.1837,-0.1876,-0.1932,-0.1954,-0.1991,-0.2007,-0.202,-0.2007,-0.201,-0.1992,-0.1974,-0.1953,-0.1959,-0.1908,-0.1929,-0.1908,-0.1888,-0.1886,-0.1766,-0.1771,-0.1571,-0.1494,-0.1882,-0.1883,-0.1884,-0.1885,0,-0.1766,-0.1845,-0.186,-0.1883,-0.1938,-0.1972,-0.2,-0.2008,-0.1992,-0.199,-0.1969,-0.1951,-0.1926,-0.1901,-0.1874,-0.189,-0.1809,-0.1825,-0.1733,-0.173,-0.1505,-0.1482,-0.1772,-0.1772,-0.1772,-0.1772,-0.1772,0,-0.1766,-0.179,-0.1838,-0.1853,-0.1853,-0.1933,-0.1927,-0.1954,-0.1958,-0.1909,-0.1949,-0.1892,-0.1906,-0.1863,-0.1855,-0.1766,-0.1794,-0.1712,-0.1699,-0.1531,-0.1512,-0.1779,-0.1781,-0.1771,-0.1771,-0.1772,-0.1772,0,-0.1722,-0.1761,-0.1768,-0.1822,-0.1835,-0.1835,-0.1873,-0.1828,-0.1892,-0.1829,-0.1829,-0.1834,-0.179,-0.1796,-0.1749,-0.1717,-0.1663,-0.1628,-0.1446,-0.141,-0.1622,-0.1627,-0.152,-0.1516,-0.1513,-0.1511,-0.1509,0,-0.1683,-0.1682,-0.1715,-0.1692,-0.1726,-0.1728,-0.1691,-0.1763,-0.1712,-0.176,-0.1693,-0.1696,-0.1633,-0.1568,-0.1521,-0.1487,-0.1569,-0.1261,-0.124,-0.1588,-0.1587,-0.1598,-0.1608,-0.0997,-0.0991,-0.0986,-0.0982,0,-0.1579,-0.161,-0.1613,-0.1571,-0.1548,-0.1509,-0.1495,-0.1443,-0.1497,-0.1499,-0.1483,-0.1478,-0.1427,-0.128,-0.1248,-0.1195,-0.1255,-0.1157,-0.1526,-0.1098,-0.1093,-0.1094,-0.1121,-0.0938,-0.0942,-0.0945,-0.0948,-0.095,-0.147,-0.1449,-0.1459,-0.1418,-0.1392,-0.1321,-0.1254,-0.1228,-0.119,-0.12,-0.1254,-0.1222,-0.1128,-0.0997,-0.0928,-0.0888,-0.0998,-0.0896,-0.0912,-0.0933,-0.0882,-0.0872,-0.0668,-0.067,-0.0673,-0.0675,-0.0677,0,-0.1257,-0.1298,-0.1279,-0.1247,-0.1188,-0.1234,-0.1125,-0.1051,-0.0974,-0.101,-0.1046,-0.085,-0.0706,-0.0686,-0.0554,-0.0515,-0.0532,-0.0462,-0.046,-0.0499,-0.0535,-0.0468,-0.0142,-0.0142,-0.0142,-0.0141,0,0,-0.1134,-0.1077,-0.1105,-0.1034,-0.105,-0.0956,-0.0882,-0.0794,-0.0779,-0.0757,-0.0742,-0.0773,-0.0674,-0.0448,-0.034,-0.0252,-0.041,-0.022,-0.0626,-0.0666,-0.0704,-0.0728,-0.0661,0,0,0,0,0]},{"header":{"parameterUnit":"m.s-1","parameterCategory":2,"la1":30.2991,"la2":30.254,"lo1":-89.0895,"lo2":-89.0444,"dy":0.0017,"dx":0.0017,"nx":28,"ny":28,"refTime":"2024-07-10T09:00:00:Z","depth":"2","parameterNumber":3,"parameterNumberName":"V-component_of_CURRENTS"},"data":[0,0,0,0,0,0,0,0,0,0,0,0,0,0,0,0,0,0,0,0,0,0,0,0,0,0,0,0,0,0,0,0,0,0,0,0,0,0,0,0,0,0,0,0,0,0,0,0,0,0,0,0,0,0,0,0,0,0,0.0244,0.0246,0,0.0404,0.0406,0.0407,0.048,0.048,0.048,0.048,0.0606,0.0609,0.0612,0,0,0,0,0,0,0,0,0,0,0,0,0,0.0042,0.0045,0.0244,0.0246,0.0249,0.0404,0.0406,0.0407,0.048,0.048,0.048,0.048,0.0605,0.0609,0.0613,0,0,0,0,0,0,0,0,0,0,0,0,0,0.0155,0.0046,0.0244,0.0306,0.0313,0.0403,0.0406,0.0408,0.048,0.048,0.048,0.048,0.0604,0.0608,0.0613,0.0638,0,0,0.0628,0.063,0,0,0,0,0,0,0,0,0.0148,0.0162,0.0294,0.0302,0.031,0.0425,0.0381,0.0484,0.048,0.0413,0.048,0.048,0.0545,0.0554,0.0579,0.0644,0.0649,0.0628,0.0631,0.0633,0.0635,0,0,0,0,0,0,0,0.014,0.0156,0.0304,0.0297,0.0307,0.034,0.0356,0.0401,0.0472,0.0419,0.0425,0.0449,0.0548,0.0574,0.0583,0.0651,0.0628,0.0632,0.0635,0.0637,0.0789,0.079,0,0,0,0,0,0,0.0126,0.0148,0.0299,0.0309,0.0232,0.0344,0.0361,0.0385,0.0473,0.0487,0.0448,0.0451,0.0566,0.0577,0.0587,0.0641,0.0633,0.0638,0.064,0.0788,0.0789,0.0791,0,0,0,0,0,0,0.0121,0.0138,0.0292,0.0235,0.0257,0.0347,0.0374,0.0388,0.0423,0.0496,0.0509,0.0468,0.0567,0.0581,0.064,0.0646,0.064,0.0644,0.0787,0.0789,0.079,0.0736,0,0,0,0,0,0,0.0114,0.0135,0.0146,0.0234,0.026,0.0352,0.0374,0.0391,0.0438,0.0444,0.0518,0.0529,0.0568,0.0633,0.0645,0.0652,0.0648,0.0785,0.0788,0.079,0.0736,0.0736,0.0735,0,0,0,0,0,0.0107,0.0129,0.0145,0.0164,0.0273,0.0353,0.0369,0.0431,0.0438,0.046,0.0509,0.0528,0.0655,0.0638,0.0652,0.066,0.0784,0.0787,0.0789,0.0737,0.0736,0.0735,0,0,0,0,0,0,0.0046,0.0141,0.0161,0.0209,0.0275,0.0366,0.0401,0.0429,0.0486,0.0487,0.0543,0.0559,0.0615,0.065,0.0629,0.0714,0.0722,0.0728,0.0678,0.0678,0.0677,0.0642,0.0652,0,0,0,0,0,0.0037,0.0075,0.0165,0.02,0.0239,0.0313,0.0352,0.0388,0.0452,0.0477,0.0525,0.058,0.0637,0.0665,0.0719,0.0762,0.0783,0.0779,0.0778,0.0777,0.0761,0.081,0.0811,0.0799,0.0799,0.0799,0,0,0.0026,0.0078,0.0102,0.0189,0.0248,0.0297,0.0338,0.0396,0.0422,0.048,0.0527,0.0581,0.065,0.0703,0.073,0.0731,0.0792,0.0781,0.0779,0.0763,0.0813,0.0813,0.0814,0.0801,0.0801,0.08,0,0,0.0015,0.0069,0.0098,0.0156,0.0238,0.0285,0.0298,0.0385,0.0414,0.0468,0.0516,0.0571,0.0654,0.0702,0.0738,0.0767,0.079,0.0787,0.0751,0.0799,0.0799,0.08,0.082,0.0822,0.0783,0.0783,0.0783,0,0.001,0.0038,0.0117,0.016,0.0204,0.0275,0.0308,0.0354,0.0437,0.0451,0.0476,0.0592,0.0653,0.0711,0.0725,0.0763,0.0782,0.0742,0.0794,0.0796,0.0797,0.0817,0.0821,0.078,0.0781,0.0781,0.0781,0,-0.0003,0.0044,0.0072,0.0143,0.0199,0.0241,0.0319,0.0348,0.0384,0.0422,0.0483,0.0568,0.0627,0.0666,0.0706,0.0749,0.0755,0.0787,0.0785,0.0794,0.0816,0.0821,0.0777,0.0778,0.0779,0.0779,0,0,-0.0025,0.0047,0.0067,0.0088,0.019,0.0232,0.0275,0.0329,0.0338,0.041,0.043,0.0535,0.0561,0.0604,0.0663,0.0709,0.0746,0.0743,0.0747,0.0741,0.0827,0.0762,0.0762,0.0783,0.0784,0.0785,0.0833,0,-0.0044,-0.0028,0.0043,0.0093,0.0113,0.0203,0.0238,0.0291,0.0334,0.0368,0.0443,0.0492,0.0544,0.0571,0.0624,0.0722,0.0757,0.0727,0.0837,0.0839,0.0764,0.0765,0.0731,0.0765,0.0838,0.0839,0.084,0,-0.0056,-0.0056,-0.0045,0.0035,0.0063,0.0108,0.0162,0.0204,0.0267,0.0299,0.0346,0.0405,0.0478,0.0527,0.0661,0.0637,0.0716,0.079,0.0794,0.0751,0.0783,0.0773,0.0771,0.0848,0.0847,0.0847,0.0846,0,-0.0156,-0.008,-0.0099,-0.0069,0.0014,0.0047,0.0098,0.0167,0.0193,0.0244,0.0261,0.0348,0.0397,0.0507,0.0633,0.0656,0.077,0.0829,0.0839,0.0835,0.0834,0.0827,0.0912,0.0912,0.0912,0.0912,0.0912,0,-0.0197,-0.0187,-0.015,-0.0152,-0.0149,-0.0041,-0.0014,0.0034,0.0105,0.0122,0.021,0.0238,0.0397,0.0478,0.0601,0.0706,0.0741,0.0817,0.0842,0.0813,0.0805,0.0904,0.0903,0.0913,0.0913,0.0913,0.0912,0,-0.0271,-0.0256,-0.0265,-0.0215,-0.0194,-0.019,-0.0081,-0.0079,0.0006,0.003,0.0043,0.0158,0.0253,0.0385,0.0561,0.0653,0.0773,0.0801,0.073,0.0745,0.082,0.0816,0.0838,0.0836,0.0834,0.0833,0.0832,0,-0.032,-0.0346,-0.0336,-0.0351,-0.0315,-0.0285,-0.0276,-0.0168,-0.016,-0.0022,-0.0036,0.0073,0.0126,0.0324,0.048,0.0635,0.0701,0.0713,0.0756,0.0789,0.0812,0.0811,0.0808,0.0745,0.0743,0.0742,0.0741,0,-0.041,-0.0405,-0.042,-0.047,-0.0466,-0.0448,-0.0412,-0.0408,-0.0288,-0.0256,-0.0184,-0.0112,0.0067,0.0225,0.0411,0.0513,0.0683,0.0686,0.0758,0.0748,0.07,0.0723,0.0725,0.0728,0.0729,0.073,0.0731,0.0732,-0.0467,-0.0512,-0.0541,-0.0571,-0.0583,-0.0585,-0.0564,-0.0522,-0.0492,-0.036,-0.0301,-0.0112,0.0039,0.0324,0.039,0.0509,0.057,0.0667,0.0674,0.0681,0.064,0.059,0.0589,0.0589,0.059,0.059,0.059,0,-0.052,-0.0584,-0.0636,-0.0665,-0.0693,-0.0667,-0.0643,-0.0605,-0.0571,-0.0398,-0.0295,-0.0097,0.0102,0.0282,0.0442,0.0507,0.0519,0.0525,0.0561,0.0573,0.0584,0.054,0.0462,0.0461,0.0461,0.046,0,0,-0.0546,-0.0631,-0.0668,-0.0752,-0.077,-0.0773,-0.0755,-0.0689,-0.0546,-0.0407,-0.0195,0.0049,0.0233,0.0324,0.0363,0.0435,0.0482,0.0421,0.0523,0.0569,0.0578,0.0668,0.0612,0,0,0,0,0]}],[{"header":{"parameterUnit":"m.s-1","parameterCategory":2,"la1":30.2991,"la2":30.254,"lo1":-89.0895,"lo2":-89.0444,"dy":0.0017,"dx":0.0017,"nx":28,"ny":28,"refTime":"2024-07-10T09:00:00:Z","depth":"4","parameterNumber":2,"parameterNumberName":"U-component_of_CURRENTS"},"data":[0,0,0,0,0,0,0,0,0,0,0,0,0,0,0,0,0,0,0,0,0,0,0,0,0,0,0,0,0,0,0,0,0,0,0,0,0,0,0,0,0,0,0,0,0,0,0,0,0,0,0,0,0,0,0,0,0,0,-0.0771,-0.0772,0,-0.0787,-0.0788,-0.0788,-0.0792,-0.0792,-0.0792,-0.0792,-0.084,-0.0841,-0.0843,0,0,0,0,0,0,0,0,0,0,0,0,0,-0.0703,-0.0704,-0.0771,-0.0772,-0.0772,-0.0787,-0.0788,-0.0788,-0.0792,-0.0792,-0.0792,-0.0792,-0.084,-0.0841,-0.0843,0,0,0,0,0,0,0,0,0,0,0,0,0,-0.0727,-0.0705,-0.0771,-0.0776,-0.0776,-0.0787,-0.0788,-0.0788,-0.0792,-0.0792,-0.0792,-0.0792,-0.0839,-0.0841,-0.0843,-0.0859,0,0,-0.0849,-0.085,0,0,0,0,0,0,0,0,-0.0726,-0.073,-0.0775,-0.0776,-0.0776,-0.0788,-0.0781,-0.0813,-0.0793,-0.0787,-0.0792,-0.0792,-0.0825,-0.0829,-0.0832,-0.0861,-0.0863,-0.085,-0.0851,-0.0852,-0.0852,0,0,0,0,0,0,0,-0.0724,-0.0729,-0.0778,-0.0775,-0.0776,-0.0763,-0.0766,-0.0787,-0.0807,-0.0787,-0.0787,-0.0789,-0.0826,-0.083,-0.0833,-0.0864,-0.0849,-0.0851,-0.0853,-0.0853,-0.0918,-0.0919,0,0,0,0,0,0,-0.0725,-0.0728,-0.0778,-0.0778,-0.075,-0.0764,-0.0768,-0.0784,-0.0807,-0.0809,-0.0789,-0.0789,-0.0826,-0.0831,-0.0835,-0.0881,-0.0852,-0.0854,-0.0855,-0.0918,-0.0918,-0.0919,0,0,0,0,0,0,-0.0724,-0.073,-0.0777,-0.0752,-0.0757,-0.0766,-0.0783,-0.0785,-0.0794,-0.0808,-0.0811,-0.0797,-0.0826,-0.0832,-0.0861,-0.0882,-0.0855,-0.0856,-0.0917,-0.0918,-0.0919,-0.0957,0,0,0,0,0,0,-0.0722,-0.073,-0.0746,-0.0753,-0.0759,-0.0786,-0.0784,-0.0785,-0.0794,-0.0795,-0.0816,-0.082,-0.0827,-0.0858,-0.0863,-0.0884,-0.0858,-0.0917,-0.0918,-0.0918,-0.0955,-0.0959,-0.0962,0,0,0,0,0,-0.0719,-0.0738,-0.0747,-0.0753,-0.078,-0.0787,-0.0788,-0.0793,-0.0795,-0.08,-0.0818,-0.0819,-0.0867,-0.086,-0.0866,-0.0888,-0.0916,-0.0917,-0.0918,-0.0953,-0.0958,-0.0962,0,0,0,0,0,0,-0.0705,-0.074,-0.075,-0.0776,-0.0783,-0.0787,-0.0795,-0.0797,-0.0815,-0.0819,-0.0831,-0.0837,-0.0869,-0.087,-0.0863,-0.0907,-0.089,-0.0892,-0.0914,-0.0919,-0.0922,-0.0923,-0.086,0,0,0,0,0,-0.0714,-0.0745,-0.076,-0.078,-0.0787,-0.0793,-0.0799,-0.0801,-0.0813,-0.082,-0.0835,-0.0852,-0.0877,-0.0891,-0.0908,-0.0936,-0.0928,-0.0951,-0.0955,-0.0958,-0.0961,-0.0973,-0.0978,-0.0923,-0.0923,-0.0923,0,0,-0.0709,-0.0735,-0.075,-0.078,-0.0788,-0.0796,-0.0797,-0.0806,-0.0817,-0.0825,-0.085,-0.0868,-0.0887,-0.0919,-0.0933,-0.0924,-0.0966,-0.0959,-0.0962,-0.0963,-0.0975,-0.098,-0.0985,-0.0923,-0.0923,-0.0923,0,0,-0.0711,-0.0744,-0.0767,-0.0777,-0.0796,-0.0802,-0.0806,-0.0817,-0.0831,-0.0856,-0.0868,-0.0897,-0.0927,-0.0947,-0.0962,-0.0994,-0.0985,-0.0999,-0.1021,-0.1033,-0.1038,-0.1042,-0.1026,-0.1028,-0.1,-0.1,-0.1001,0,-0.0684,-0.0739,-0.0768,-0.0784,-0.0793,-0.0805,-0.0813,-0.083,-0.0848,-0.0869,-0.0868,-0.0926,-0.0941,-0.0989,-0.1001,-0.1004,-0.0999,-0.1007,-0.1039,-0.1043,-0.1046,-0.1028,-0.1031,-0.1002,-0.1002,-0.1002,-0.1002,0,-0.0701,-0.0743,-0.0753,-0.0787,-0.0798,-0.0807,-0.0829,-0.0849,-0.0869,-0.0887,-0.0939,-0.0964,-0.0997,-0.101,-0.102,-0.106,-0.1043,-0.1043,-0.1029,-0.1055,-0.1033,-0.1035,-0.1005,-0.1005,-0.1004,-0.1004,0,0,-0.0579,-0.0739,-0.0721,-0.0772,-0.0802,-0.0808,-0.084,-0.0874,-0.0894,-0.0933,-0.0968,-0.1022,-0.1039,-0.1055,-0.1074,-0.109,-0.1109,-0.1082,-0.1082,-0.1067,-0.1118,-0.1011,-0.1002,-0.112,-0.1121,-0.1121,-0.1088,0,-0.0557,-0.0639,-0.07,-0.0741,-0.0785,-0.0821,-0.0843,-0.0877,-0.0909,-0.0945,-0.1,-0.1034,-0.1056,-0.1072,-0.1101,-0.1111,-0.1118,-0.1117,-0.1094,-0.1093,-0.0997,-0.1002,-0.1124,-0.1089,-0.1089,-0.109,-0.109,0,-0.049,-0.0585,-0.0649,-0.0774,-0.0783,-0.08,-0.0841,-0.0867,-0.0927,-0.0952,-0.1009,-0.1042,-0.1097,-0.1097,-0.1138,-0.1139,-0.1132,-0.1132,-0.1131,-0.102,-0.0989,-0.1062,-0.1092,-0.1092,-0.1092,-0.1092,-0.1092,0,-0.037,-0.0509,-0.0581,-0.0613,-0.0747,-0.0776,-0.0823,-0.087,-0.0896,-0.0957,-0.0974,-0.1047,-0.107,-0.1102,-0.1115,-0.113,-0.1133,-0.1147,-0.1041,-0.1032,-0.1124,-0.112,-0.1158,-0.1158,-0.1158,-0.1158,-0.1158,0,-0.0277,-0.033,-0.0554,-0.0575,-0.0647,-0.0742,-0.0778,-0.0816,-0.0883,-0.0907,-0.0976,-0.0994,-0.1072,-0.1091,-0.111,-0.1069,-0.1127,-0.1038,-0.1019,-0.1137,-0.1135,-0.1123,-0.112,-0.1157,-0.1157,-0.1157,-0.1158,0,-0.0101,-0.0252,-0.0343,-0.0525,-0.0591,-0.0617,-0.0755,-0.0785,-0.0843,-0.0875,-0.0894,-0.0957,-0.0958,-0.1005,-0.1029,-0.1029,-0.1018,-0.0982,-0.1082,-0.107,-0.0912,-0.0911,-0.087,-0.0866,-0.0863,-0.086,-0.0858,0,-0.0056,-0.0091,-0.0264,-0.0317,-0.0404,-0.0514,-0.0587,-0.0725,-0.0771,-0.0841,-0.0849,-0.0865,-0.0895,-0.0844,-0.0898,-0.0895,-0.0891,-0.089,-0.093,-0.0898,-0.0884,-0.0888,-0.0892,-0.0852,-0.0851,-0.085,-0.085,0,0.0042,0.0017,-0.0031,-0.0131,-0.0233,-0.0368,-0.0505,-0.0567,-0.0709,-0.0764,-0.0771,-0.0775,-0.0755,-0.0772,-0.0752,-0.0766,-0.0906,-0.0855,-0.0863,-0.0901,-0.0876,-0.0866,-0.0873,-0.0838,-0.084,-0.0841,-0.0841,0,0.0141,0.0161,0.0121,0.0035,-0.0044,-0.0196,-0.0332,-0.0461,-0.0547,-0.0687,-0.0676,-0.0694,-0.0733,-0.07,-0.0699,-0.0681,-0.0688,-0.0708,-0.0724,-0.0737,-0.0711,-0.0661,-0.0533,0,0,0,0,0,0.0183,0.022,0.0229,0.0151,0.012,-0.0,-0.0244,-0.0404,-0.0607,-0.058,-0.0638,-0.0615,-0.0595,-0.0612,-0.0565,-0.0637,-0.0689,-0.0583,-0.0721,-0.0773,-0.0786,-0.0769,0,0,0,0,0,0,0.0207,0.026,0.0278,0.0292,0.0251,0.0134,-0.0062,-0.0246,-0.0288,-0.0448,-0.044,-0.0511,-0.0499,-0.0534,-0.0498,-0.0508,-0.0582,-0.0602,-0.06,-0.0765,-0.0777,-0.0788,-0.0775,0,0,0,0,0]},{"header":{"parameterUnit":"m.s-1","parameterCategory":2,"la1":30.2991,"la2":30.254,"lo1":-89.0895,"lo2":-89.0444,"dy":0.0017,"dx":0.0017,"nx":28,"ny":28,"refTime":"2024-07-10T09:00:00:Z","depth":"4","parameterNumber":3,"parameterNumberName":"V-component_of_CURRENTS"},"data":[0,0,0,0,0,0,0,0,0,0,0,0,0,0,0,0,0,0,0,0,0,0,0,0,0,0,0,0,0,0,0,0,0,0,0,0,0,0,0,0,0,0,0,0,0,0,0,0,0,0,0,0,0,0,0,0,0,0,-0.0241,-0.0241,0,-0.024,-0.0241,-0.0241,-0.022,-0.022,-0.0219,-0.0218,-0.0191,-0.0191,-0.0191,0,0,0,0,0,0,0,0,0,0,0,0,0,-0.0236,-0.0236,-0.0241,-0.0241,-0.0241,-0.024,-0.0241,-0.0241,-0.022,-0.022,-0.0219,-0.0218,-0.0191,-0.0191,-0.0191,0,0,0,0,0,0,0,0,0,0,0,0,0,-0.0239,-0.0236,-0.0241,-0.0229,-0.0227,-0.024,-0.0241,-0.0241,-0.0221,-0.022,-0.0218,-0.0217,-0.0191,-0.0191,-0.0191,-0.0213,0,0,-0.0191,-0.0191,0,0,0,0,0,0,0,0,-0.0239,-0.024,-0.0231,-0.023,-0.0228,-0.0227,-0.0229,-0.023,-0.0221,-0.0226,-0.0218,-0.0217,-0.02,-0.0199,-0.0205,-0.0212,-0.0211,-0.0191,-0.0191,-0.0191,-0.0191,0,0,0,0,0,0,0,-0.0239,-0.024,-0.0243,-0.0231,-0.0229,-0.0227,-0.0226,-0.0229,-0.0221,-0.0225,-0.0223,-0.022,-0.0199,-0.0205,-0.0204,-0.0211,-0.0191,-0.0191,-0.0191,-0.0191,-0.0221,-0.0221,0,0,0,0,0,0,-0.0235,-0.024,-0.0243,-0.0243,-0.0228,-0.0228,-0.0227,-0.0231,-0.0221,-0.0218,-0.0221,-0.0219,-0.0206,-0.0204,-0.0203,-0.0219,-0.0191,-0.0191,-0.0191,-0.022,-0.0221,-0.0222,0,0,0,0,0,0,-0.0235,-0.0236,-0.0243,-0.0239,-0.0239,-0.0228,-0.0233,-0.0231,-0.0237,-0.0217,-0.0214,-0.0227,-0.0205,-0.0203,-0.0207,-0.0218,-0.0191,-0.0191,-0.0219,-0.022,-0.0221,-0.0257,0,0,0,0,0,0,-0.0235,-0.0236,-0.0241,-0.0239,-0.0239,-0.0261,-0.0234,-0.0232,-0.0235,-0.0232,-0.0222,-0.0218,-0.0204,-0.0208,-0.0207,-0.0218,-0.0191,-0.0218,-0.0219,-0.0221,-0.0255,-0.026,-0.0264,0,0,0,0,0,-0.0235,-0.0251,-0.0242,-0.0242,-0.0246,-0.0262,-0.0263,-0.0253,-0.0236,-0.0251,-0.0236,-0.0219,-0.0217,-0.0209,-0.0208,-0.0218,-0.0217,-0.0219,-0.0221,-0.0253,-0.0259,-0.0263,0,0,0,0,0,0,-0.0253,-0.025,-0.024,-0.0253,-0.0259,-0.0258,-0.0268,-0.0259,-0.0261,-0.0255,-0.0232,-0.0228,-0.0235,-0.0226,-0.0218,-0.0232,-0.0214,-0.0215,-0.0238,-0.0244,-0.0248,-0.0249,-0.0191,0,0,0,0,0,-0.0259,-0.0269,-0.0265,-0.0278,-0.0281,-0.0275,-0.0279,-0.0275,-0.0273,-0.0272,-0.0263,-0.0251,-0.0245,-0.0243,-0.024,-0.0253,-0.0218,-0.0258,-0.0263,-0.0266,-0.0267,-0.0213,-0.0212,-0.0228,-0.0228,-0.0228,0,0,-0.0271,-0.0268,-0.0276,-0.0283,-0.0284,-0.0304,-0.0276,-0.0291,-0.0306,-0.027,-0.0287,-0.0269,-0.0252,-0.0261,-0.0263,-0.0253,-0.0247,-0.0269,-0.0272,-0.0271,-0.0215,-0.0213,-0.0211,-0.0229,-0.0229,-0.0228,0,0,-0.0302,-0.0298,-0.0316,-0.0324,-0.0329,-0.033,-0.0336,-0.0339,-0.0338,-0.0355,-0.0323,-0.0309,-0.0316,-0.0295,-0.0286,-0.0315,-0.0271,-0.0317,-0.0339,-0.0286,-0.0284,-0.0281,-0.0244,-0.0238,-0.0319,-0.0319,-0.0319,0,-0.0315,-0.0333,-0.0327,-0.0346,-0.0355,-0.0344,-0.0369,-0.0376,-0.038,-0.0376,-0.0368,-0.0345,-0.0332,-0.0316,-0.0326,-0.0323,-0.0288,-0.0319,-0.0289,-0.0286,-0.0283,-0.0245,-0.0238,-0.0321,-0.0321,-0.032,-0.032,0,-0.0359,-0.0372,-0.0386,-0.0404,-0.042,-0.0441,-0.0444,-0.0454,-0.0449,-0.0443,-0.0432,-0.0405,-0.0385,-0.0379,-0.0364,-0.0336,-0.0319,-0.0299,-0.0273,-0.0283,-0.0244,-0.0235,-0.0324,-0.0323,-0.0322,-0.0322,0,0,-0.0375,-0.0411,-0.0411,-0.0426,-0.0449,-0.0466,-0.0492,-0.0503,-0.0506,-0.05,-0.0494,-0.0474,-0.0441,-0.0428,-0.0394,-0.0352,-0.0304,-0.032,-0.0317,-0.0277,-0.0193,-0.0157,-0.0144,-0.0271,-0.0269,-0.0268,-0.0177,0,-0.0404,-0.0451,-0.0461,-0.0505,-0.0528,-0.053,-0.0555,-0.0562,-0.0559,-0.0554,-0.0508,-0.0497,-0.0465,-0.0449,-0.0401,-0.0331,-0.0283,-0.0331,-0.0194,-0.0191,-0.0151,-0.0134,-0.0264,-0.017,-0.0168,-0.0167,-0.0166,0,-0.043,-0.0457,-0.0509,-0.0545,-0.0554,-0.0583,-0.0603,-0.0624,-0.0612,-0.0605,-0.0573,-0.0541,-0.0487,-0.0455,-0.033,-0.036,-0.0282,-0.0222,-0.0216,-0.0163,-0.0139,-0.0156,-0.015,-0.0151,-0.0153,-0.0154,-0.0155,0,-0.0432,-0.0481,-0.0523,-0.0538,-0.0585,-0.0603,-0.0625,-0.0633,-0.0639,-0.063,-0.0621,-0.0561,-0.0523,-0.0421,-0.0313,-0.0314,-0.0168,-0.0151,-0.0043,-0.004,-0.0083,-0.0087,-0.0048,-0.0049,-0.0049,-0.0049,-0.0049,0,-0.0438,-0.0469,-0.0527,-0.0548,-0.0585,-0.0617,-0.0645,-0.0656,-0.0662,-0.0653,-0.0639,-0.0603,-0.0508,-0.042,-0.0317,-0.0158,-0.0166,-0.0039,-0.0006,-0.0104,-0.0111,-0.0078,-0.0082,-0.0046,-0.0046,-0.0047,-0.0048,0,-0.041,-0.0459,-0.0513,-0.0574,-0.0587,-0.0613,-0.0651,-0.0661,-0.0679,-0.0663,-0.066,-0.0622,-0.0516,-0.0416,-0.0256,-0.0157,-0.0018,0.0043,-0.0085,-0.0063,0.0075,0.0067,0.0179,0.0181,0.0183,0.0185,0.0186,0,-0.0392,-0.0422,-0.0515,-0.0546,-0.0569,-0.0608,-0.0623,-0.0657,-0.0662,-0.0654,-0.0633,-0.0567,-0.0519,-0.0278,-0.0183,0.0004,0.004,0.0113,0.011,0.0082,0.0102,0.0091,0.0081,0.0189,0.0189,0.019,0.019,0,-0.0347,-0.0403,-0.0442,-0.051,-0.0545,-0.0575,-0.0602,-0.0608,-0.063,-0.0646,-0.0574,-0.048,-0.0367,-0.0237,-0.0109,0.0031,0.0063,0.0133,0.013,0.0129,0.0095,0.0111,0.0099,0.0197,0.0196,0.0195,0.0195,0,-0.0309,-0.0324,-0.0393,-0.0439,-0.0509,-0.0535,-0.0557,-0.0548,-0.0552,-0.0553,-0.0519,-0.0431,-0.0395,-0.0219,-0.0091,0.0029,0.0076,0.0142,0.014,0.0134,0.0089,0.0038,0.0161,0,0,0,0,0,-0.0252,-0.0253,-0.0308,-0.0364,-0.0449,-0.0475,-0.0534,-0.0554,-0.0579,-0.0509,-0.0515,-0.0407,-0.0228,-0.0177,-0.0043,-0.0057,0.0085,0.0107,0.0158,0.0232,0.0225,0.0183,0,0,0,0,0,0,-0.0213,-0.0242,-0.027,-0.0304,-0.0332,-0.0383,-0.0433,-0.0446,-0.0421,-0.0442,-0.0363,-0.0324,-0.0178,-0.0285,-0.0018,0.0011,0.0074,0.0172,0.0176,0.0237,0.023,0.0224,0.0178,0,0,0,0,0]}]]